Погода в Келоуне

Канада     49°53′13″N   119°29′47″W
темп.,
°C
ветер,
м/с
пор.,
м/с
влажн.,
%
обл.,
%
осадки,
мм/ч
давл.,
гПа
погр.,
м
6 мая, чт
чт623:00+8с2266100 0.0 101828
02:00+7ссз2266100 0.0 101722
05:00+7с2267100 0.0 101626
08:00+10с1156100 0.0 1014154
11:00+15с2240100 0.0 1011539
14:00+21ссз2527100 0.0 10061350
17:00+21ю51130100 0.0 10032402
20:00+10зсз2387100 0.8 1006101
7 мая, пт
пт723:00+9зсз1190100 2.3 100844
02:00+8зсз2284100 0.3 100934
05:00+5з2286100 0.3 101262
08:00+7ююз2463100 0.1 1013876
11:00+10юз3334100 0.1 10122204
14:00+12зсз3331100 0.1 10112385
17:00+11зсз673799 0.1 10101932
20:00+6з2465100 0.1 1014245
8 мая, сб
сб823:00+4з2367100 0.1 1016172
02:00+2зюз2372100 0.1 1018131
05:00+2зюз2468100 0.1 1018162
08:00+6зюз2554100 0.0 1018717
11:00+10зсз5838100 0.0 10172119
14:00+13сз5729100 0.0 10152550
17:00+14ссз5826100 0.0 10132652
20:00+9з354493 0.0 1014158
9 мая, вс
вс923:00+4з226899 0.0 101848
02:00+2зсз117395 0.0 101923
05:00+2юз1172100 0.0 102136
08:00+6юв0154100 0.0 1021421
11:00+12в123756 0.0 10181402
14:00+15ссв223593 0.0 10172118
17:00+15ссв223179 0.0 10162205
20:00+10ссв214914 0.0 101616
10 мая, пн
пн1023:00+6сз116646 0.0 101914
02:00+4зсз117352 0.0 102012
05:00+3зсз118211 0.0 102111
08:00+9ю115752 0.0 1020402
11:00+16ююв113885 0.1 10181409
14:00+18зюз222941 0.1 10152573
17:00+18зсз3327100 0.1 10132640
20:00+12зсз2343100 0.0 101560